This is the latest recevied weather packets stored in our database for station/object EA7HQL-10. If no packets are shown the sender has not sent any weather packets the latest 1 day(s).
| Time | Temp. | Humidity | Pressure | Rain* | Wind** | Luminosity | Snow |
|---|---|---|---|---|---|---|---|
| 1778014774 | 21.67° C | 34% | 1009.7 hPa | 0 mm | 2.24 m/s, 297° | - | - |
| 1778014519 | 21.67° C | 35% | 1009.8 hPa | 0 mm | 0 m/s | - | - |
| 1778014234 | 21.67° C | 34% | 1009.7 hPa | 0 mm | 1.79 m/s, 252° | - | - |
| 1778013934 | 21.67° C | 34% | 1009.5 hPa | 0 mm | 1.79 m/s, 321° | - | - |
| 1778013684 | 21.67° C | 35% | 1009.7 hPa | 0 mm | 0 m/s | - | - |
| 1778013419 | 21.67° C | 35% | 1009.6 hPa | 0 mm | 1.34 m/s, 359° | - | - |
| 1778013149 | 21.67° C | 34% | 1009.6 hPa | 0 mm | 1.34 m/s, 51° | - | - |
| 1778012879 | 21.67° C | 34% | 1009.5 hPa | 0 mm | 1.79 m/s, 303° | - | - |
| 1778012579 | 21.67° C | 34% | 1009.5 hPa | 0 mm | 0.89 m/s, 318° | - | - |
| 1778012281 | 21.67° C | 34% | 1009.5 hPa | 0 mm | 0.89 m/s, 95° | - | - |
| 1778012019 | 21.67° C | 34% | 1009.7 hPa | 0 mm | 2.24 m/s, 340° | - | - |
| 1778011759 | 21.67° C | 34% | 1009.6 hPa | 0 mm | 1.34 m/s, 82° | - | - |
| 1778011489 | 21.67° C | 34% | 1009.6 hPa | 0 mm | 1.79 m/s, 329° | - | - |
| 1778011209 | 21.67° C | 33% | 1009.6 hPa | 0 mm | 1.79 m/s, 346° | - | - |
| 1778010919 | 21.67° C | 33% | 1009.5 hPa | 0 mm | 1.34 m/s, 305° | - | - |
| 1778010674 | 21.67° C | 33% | 1009.6 hPa | 0 mm | 2.24 m/s, 303° | - | - |
| 1778010374 | 21.67° C | 33% | 1009.6 hPa | 0 mm | 0.89 m/s, 96° | - | - |
| 1778010091 | 21.67° C | 33% | 1009.6 hPa | 0 mm | 0.89 m/s, 254° | - | - |
| 1778009824 | 22.22° C | 32% | 1009.6 hPa | 0 mm | 1.79 m/s, 25° | - | - |
| 1778009549 | 22.22° C | 32% | 1009.5 hPa | 0 mm | 0.89 m/s, 257° | - | - |
| 1778009274 | 22.22° C | 32% | 1009.6 hPa | 0 mm | 0 m/s | - | - |
| 1778008997 | 22.22° C | 33% | 1009.8 hPa | 0 mm | 0 m/s | - | - |
| 1778008724 | 22.22° C | 33% | 1009.5 hPa | 0 mm | 0 m/s | - | - |
| 1778008439 | 22.22° C | 34% | 1009.4 hPa | 0 mm | 0 m/s | - | - |
| 1778008174 | 22.22° C | 35% | 1009.5 hPa | 0 mm | 0 m/s | - | - |
* Rain latest hour (hover to see other rain measurements)
** Current wind speed in m/s (hover to see current wind gust speed)